カタログに戻る

STARLINK-37781

運用中通信SSO
NORAD 69341·PAYLOAD·🇺🇸 United States

打ち上げ Jun 3, 2026 から Vandenberg Space Force Base

Loading…

次のパス (今後24時間)

TLE

最新Source: CelesTrak SupGP

元期: Sep 15, 2026, 03:23 UTC

1 69341C 26122N   26258.14145833 -.00028433  00000+0 -88223-3 0  2583
2 69341  97.2824 286.8354 0001366  87.5799  71.1371 15.33467693    12

AllMySatでSTARLINK-37781をリアルタイム追跡

Download on the App Store